Knox, IN

4:12 PM CDT on September 27, 2016 (GMT -0500)
Starke County

Weather History for KOXI - January, 2012

Change the Weather History Date:

Thursday, January 12, 2012

  Actual Average (KVPZ) Record (KVPZ)
Temperature  
Mean Temperature 28 °F 23 °F  
Max Temperature 37 °F 31 °F 63 °F (2005)
Min Temperature 18 °F 16 °F 2 °F (2016)
Degree Days  
Heating Degree Days 38 42  
Month to date heating degree days 495  
Since 1 July heating degree days 2897  
Cooling Degree Days 0 0  
Month to date cooling degree days 0  
Year to date cooling degree days 0  
Moisture  
Dew Point 29 °F    
Average Humidity 94    
Maximum Humidity 100    
Minimum Humidity 86    
Precipitation  
Precipitation 0.00 in 0.05 in 0.78 in (2005)
Month to date precipitation 0.65  
Year to date precipitation 0.65  
Sea Level Pressure  
Sea Level Pressure 29.43 in    
Wind  
Wind Speed 7 mph (WSW)    
Max Wind Speed 21 mph    
Max Gust Speed 29 mph    
Visibility 4 miles    
Events      
T = Trace of Precipitation, MM = Missing Value Source: NWS Daily Summary

Daily Weather History Graph

Daily Weather History Graph

Search for Another Location

Airport or City:

Trip Planner

Search our weather history database for the weather conditions in past years. The results will help you decide how hot, cold, wet, or windy it might be!

Date:

Astronomy

Jan. 12, 2012 Rise Set
Actual Time 7:11 AM CST 4:38 PM CST
Civil Twilight 6:40 AM CST 5:09 PM CST
Nautical Twilight 6:06 AM CST 5:43 PM CST
Astronomical Twilight 5:33 AM CST 6:16 PM CST
Moon 8:46 PM CST (1/12) 8:52 AM CST (1/12)
Length of Visible Light 10h 28m
Length of Day
9h 26m
Waning Gibbous, 87% of the Moon is Illuminated
Jan 12
Waning Gibbous
Jan 16
Last Quarter
Jan 23
New
Jan 30
First Quarter
Feb 7
Full

Hourly Weather History & Observations

Time (CST) Temp. Windchill Dew Point Humidity Pressure Visibility Wind Dir Wind Speed Gust Speed Precip Events Conditions
12:15 AM 37.4 °F - 35.8 °F 94% 29.45 in 10.0 mi Calm Calm - N/A   Overcast
12:35 AM 37.6 °F - 35.8 °F 93% 29.45 in 10.0 mi Calm Calm - N/A   Overcast
12:55 AM 37.6 °F - 36.1 °F 95% 29.46 in 10.0 mi Calm Calm - N/A   Overcast
1:15 AM 37.8 °F - 36.1 °F 94% 29.46 in 7.0 mi Calm Calm - N/A   Overcast
1:35 AM 37.6 °F - 36.1 °F 95% 29.45 in 10.0 mi Calm Calm - N/A   Overcast
1:55 AM 37.0 °F 33.3 °F 35.4 °F 94% 29.45 in 7.0 mi West 4.6 mph - N/A   Overcast
2:15 AM 36.3 °F - 34.7 °F 94% 29.46 in 10.0 mi Calm Calm - N/A   Overcast
2:35 AM 36.1 °F 32.3 °F 34.3 °F 93% 29.46 in 7.0 mi West 4.6 mph - N/A   Overcast
2:55 AM 36.0 °F - 34.5 °F 94% 29.45 in 7.0 mi Calm Calm - N/A   Overcast
3:15 AM 36.1 °F 32.3 °F 34.3 °F 93% 29.45 in 7.0 mi WSW 4.6 mph - N/A   Overcast
3:35 AM 36.0 °F 33.3 °F 34.2 °F 93% 29.45 in 7.0 mi WSW 3.5 mph - N/A   Overcast
3:55 AM 35.4 °F 31.5 °F 33.8 °F 94% 29.45 in 7.0 mi WSW 4.6 mph - N/A   Overcast
4:15 AM 34.9 °F 32.0 °F 32.7 °F 92% 29.44 in 7.0 mi WSW 3.5 mph - N/A   Overcast
4:35 AM 34.5 °F - 32.2 °F 91% 29.44 in 7.0 mi Calm Calm - N/A   Overcast
4:55 AM 34.2 °F - 32.0 °F 92% 29.43 in 7.0 mi Calm Calm - N/A   Overcast
5:15 AM 33.3 °F 30.2 °F 32.0 °F 95% 29.43 in 5.0 mi SW 3.5 mph - N/A   Overcast
5:35 AM 32.9 °F 28.5 °F 32.0 °F 96% 29.44 in 5.0 mi WSW 4.6 mph - N/A   Mostly Cloudy
5:55 AM 32.7 °F 27.3 °F 32.0 °F 97% 29.44 in 1.8 mi West 5.8 mph - N/A   Overcast
6:15 AM 32.9 °F 27.5 °F 32.2 °F 97% 29.44 in 0.2 mi WSW 5.8 mph - N/A   Overcast
6:35 AM 33.3 °F 27.9 °F 32.5 °F 97% 29.44 in 0.2 mi WSW 5.8 mph - N/A   Overcast
6:55 AM 33.6 °F 26.8 °F 32.9 °F 97% 29.44 in 1.2 mi WSW 8.1 mph - N/A   Overcast
7:15 AM 32.7 °F 27.3 °F 32.4 °F 99% 29.44 in 2.5 mi SW 5.8 mph - N/A   Overcast
7:35 AM 32.0 °F 27.5 °F 32.0 °F 100% 29.43 in 1.8 mi SW 4.6 mph - N/A   Overcast
7:55 AM 32.4 °F 25.3 °F 32.0 °F 99% 29.43 in 1.5 mi SW 8.1 mph - N/A   Overcast
8:15 AM 32.4 °F 24.0 °F 32.0 °F 99% 29.43 in 2.0 mi SW 10.4 mph - N/A   Overcast
8:35 AM 32.4 °F 22.5 °F 32.0 °F 99% 29.43 in 2.5 mi WSW 13.8 mph - N/A   Overcast
8:55 AM 32.5 °F 24.8 °F 32.0 °F 98% 29.43 in 3.0 mi WSW 9.2 mph - N/A   Overcast
9:15 AM 32.9 °F 23.7 °F 32.0 °F 96% 29.43 in 3.0 mi West 12.7 mph - N/A   Overcast
9:35 AM 32.9 °F 23.7 °F 32.0 °F 96% 29.43 in 2.5 mi WSW 12.7 mph - N/A   Overcast
9:55 AM 33.1 °F 23.4 °F 32.0 °F 96% 29.43 in 2.5 mi West 13.8 mph - N/A   Overcast
10:15 AM 33.4 °F 24.8 °F 32.4 °F 96% 29.43 in 2.0 mi West 11.5 mph - N/A   Overcast
10:35 AM 33.6 °F 25.6 °F 32.5 °F 96% 29.42 in 1.8 mi WSW 10.4 mph - N/A   Overcast
10:55 AM 33.1 °F 24.4 °F 32.2 °F 96% 29.40 in 2.0 mi West 11.5 mph - N/A   Overcast
11:15 AM 32.7 °F 24.5 °F 32.0 °F 97% 29.40 in 2.0 mi WSW 10.4 mph - N/A   Overcast
11:35 AM 32.4 °F 22.5 °F 32.0 °F 99% 29.39 in 1.8 mi SW 13.8 mph - N/A   Overcast
11:55 AM 31.8 °F 21.0 °F 31.1 °F 97% 29.39 in 2.0 mi SW 16.1 mph - N/A   Overcast
12:15 PM 30.6 °F 20.7 °F 29.8 °F 97% 29.39 in 2.0 mi SW 12.7 mph - N/A   Overcast
12:35 PM 29.7 °F 17.8 °F 28.6 °F 96% 29.38 in 4.0 mi SW 17.3 mph 20.7 mph N/A   Overcast
12:55 PM 29.3 °F 19.1 °F 27.7 °F 94% 29.38 in 2.5 mi SW 12.7 mph - N/A   Overcast
1:15 PM 29.1 °F 17.1 °F 27.3 °F 93% 29.38 in 2.0 mi SSW 17.3 mph 20.7 mph N/A   Overcast
1:35 PM 27.3 °F 14.8 °F 25.0 °F 91% 29.39 in 3.0 mi SW 17.3 mph 25.3 mph N/A   Overcast
1:55 PM 25.9 °F 13.3 °F 23.2 °F 90% 29.39 in 2.0 mi SW 16.1 mph - N/A   Overcast
2:15 PM 24.8 °F 11.1 °F 22.5 °F 91% 29.40 in 1.2 mi WSW 18.4 mph 26.5 mph N/A   Overcast
2:35 PM 23.7 °F 9.7 °F 21.2 °F 90% 29.41 in 1.2 mi SW 18.4 mph 25.3 mph N/A   Overcast
2:55 PM 23.0 °F 9.6 °F 20.3 °F 89% 29.41 in 1.8 mi SW 16.1 mph 26.5 mph N/A   Overcast
3:15 PM 22.6 °F 8.3 °F 19.8 °F 89% 29.42 in 2.0 mi WSW 18.4 mph 24.2 mph N/A   Overcast
3:35 PM 22.5 °F 8.0 °F 19.8 °F 89% 29.43 in 1.8 mi SW 18.4 mph - N/A   Overcast
3:55 PM 22.1 °F 8.5 °F 19.4 °F 89% 29.43 in 1.8 mi WSW 16.1 mph - N/A   Overcast
4:15 PM 21.7 °F 8.5 °F 18.9 °F 89% 29.44 in 2.5 mi WSW 15.0 mph - N/A   Overcast
4:35 PM 21.2 °F 6.8 °F 18.5 °F 89% 29.44 in 1.8 mi SW 17.3 mph - N/A   Overcast
4:55 PM 20.5 °F 5.0 °F 17.8 °F 89% 29.45 in 1.5 mi SW 19.6 mph 24.2 mph N/A   Overcast
5:15 PM 19.6 °F 3.9 °F 16.7 °F 89% 29.45 in 4.0 mi WSW 19.6 mph 24.2 mph N/A   Overcast
5:35 PM 18.9 °F 2.5 °F 15.6 °F 87% 29.45 in 5.0 mi SW 20.7 mph 28.8 mph N/A   Overcast
5:55 PM 18.5 °F 2.9 °F 15.3 °F 87% 29.45 in 7.0 mi SW 18.4 mph 26.5 mph N/A   Overcast
6:15 PM 18.3 °F 1.8 °F 14.7 °F 86% 29.45 in 5.0 mi SW 20.7 mph 26.5 mph N/A   Overcast
6:35 PM 17.8 °F 1.5 °F 14.0 °F 85% 29.45 in 2.5 mi SW 19.6 mph 24.2 mph N/A   Overcast
7:15 PM 17.2 °F -0.0 °F 14.0 °F 87% 29.45 in 1.2 mi SW 21.9 mph - N/A   Overcast
7:35 PM 17.1 °F 0.6 °F 14.2 °F 88% 29.46 in 1.5 mi SW 19.6 mph 29.9 mph N/A   Overcast
7:55 PM 16.9 °F -0.5 °F 14.0 °F 88% 29.46 in 2.0 mi SW 21.9 mph 27.6 mph N/A   Overcast
8:15 PM 17.1 °F 0.6 °F 14.0 °F 88% 29.46 in 2.5 mi SW 19.6 mph 26.5 mph N/A   Overcast
8:35 PM 17.2 °F 1.2 °F 14.0 °F 87% 29.45 in 2.0 mi SW 18.4 mph 26.5 mph N/A   Overcast
8:55 PM 17.4 °F 2.4 °F 14.4 °F 88% 29.45 in 2.0 mi SW 16.1 mph 26.5 mph N/A   Overcast
9:15 PM 17.6 °F 1.3 °F 14.7 °F 88% 29.45 in 1.8 mi SW 19.6 mph 27.6 mph N/A   Overcast
9:35 PM 17.8 °F 0.7 °F 15.1 °F 89% 29.46 in 1.8 mi SW 21.9 mph 26.5 mph N/A   Overcast
9:55 PM 18.1 °F 2.0 °F 15.8 °F 91% 29.45 in 1.2 mi SW 19.6 mph 28.8 mph N/A   Overcast
10:15 PM 18.5 °F 2.4 °F 16.3 °F 91% 29.46 in 2.0 mi WSW 19.6 mph 25.3 mph N/A   Overcast
10:35 PM 19.4 °F 2.8 °F 17.2 °F 91% 29.46 in 1.5 mi WSW 21.9 mph 28.8 mph N/A   Overcast
10:55 PM 19.8 °F 3.3 °F 17.6 °F 91% 29.46 in 1.5 mi WSW 21.9 mph 29.9 mph N/A   Overcast
11:15 PM 19.4 °F 1.4 °F 17.1 °F 91% 29.46 in 3.0 mi West 26.5 mph 33.4 mph N/A   Overcast
11:35 PM 19.4 °F 1.4 °F 16.7 °F 89% 29.47 in 3.0 mi WSW 26.5 mph 34.5 mph N/A   Overcast
11:55 PM 19.2 °F 1.5 °F 16.7 °F 90% 29.48 in 1.8 mi West 25.3 mph 28.8 mph N/A   Overcast